Tracking 19903 objects as of 17-Oct-2019
HD Live streaming from Space Station
objects crossing your sky now

IRIDIUM 33 DEB

Track IRIDIUM 33 DEB now!
10-day predictions


NORAD ID: 39793
Int'l Code: 1997-051ABA
Perigee: 472.7 km
Apogee: 482.5 km
Inclination: 86.3 °
Period: 94.0 minutes
Semi major axis: 6848 km
RCS: 0.0109 m2 (small)
Launch date: September 14, 1997
Source: United States (US)
Launch site: TYURATAM MISSILE AND SPACE COMPLEX (TTMTR)

Note: This is SATELLITE DEBRIS
aabbcc
Your satellite tracking list
Your tracking list is empty




NASA's NSSDC Master Catalog

Two Line Element Set (TLE):
1 39793U 97051ABA 19289.45881075  .00039824  00000-0  12912-2 0  9993
2 39793  86.3455 186.1333 0007147  21.5887 338.5662 15.31797278774033
Source of the keplerian elements: AFSPC